Date String (YYYY-MM-DD hh:mm:ss) UTC,Instrument flags,Ambient pressure (hPa),Sample flow (lpm),Bypass flow (lpm),Sample temperature (°C),Ambient temperature (°C),ASC tube jacket temperature (°C),LED temperature (°C),Box temperature (°C),Sample RH (%),Span deviation,Mass concentration (μg/m³),Mass concentration (μg/m³),Mass concentration (μg/m³)
DateTimeUTC,F1_M11,P_M11,Q1_M11,Q2_M11,T1_M11,T2_M11,T3_M11,T4_M11,T5_M11,U1_M11,ZSPAN_M11,X0_M11,X2_M11,X1_M11
2022-03-01 06:00:00,,0828.8,5.00,0.00,26.9,26.1,00.0,35.9,28.7,06.9,0000.0,0002.03,0000.83,0000.54
2022-03-01 06:01:00,,0828.9,5.01,0.00,26.9,26.1,00.0,35.9,28.6,06.8,0000.0,0001.76,0000.83,0000.55
2022-03-01 06:02:00,,0828.7,5.01,0.00,26.9,26.1,00.0,35.9,28.6,06.6,0000.0,0001.37,0000.81,0000.55
2022-03-01 06:03:00,,0828.7,5.00,0.00,26.9,26.1,00.0,35.9,28.6,06.7,0000.0,0002.01,0000.77,0000.54
2022-03-01 06:04:00,,0828.7,5.00,0.00,26.9,26.1,00.0,35.9,28.6,06.6,0000.0,0002.18,0000.77,0000.54
2022-03-01 06:05:00,,0828.7,4.99,0.00,26.9,26.1,00.0,35.9,28.6,06.7,0000.0,0002.28,0000.79,0000.54
2022-03-01 06:06:00,,0828.6,5.00,0.00,26.9,26.1,00.0,35.9,28.7,06.7,0000.0,0002.40,0000.83,0000.54
2022-03-01 06:07:00,,0828.7,5.00,0.00,26.9,26.1,00.0,35.9,28.7,06.8,0000.0,0002.37,0000.81,0000.53
2022-03-01 06:08:00,,0828.6,5.00,0.00,26.9,26.1,00.0,35.9,28.6,06.9,0000.0,0002.40,0000.83,0000.53
2022-03-01 06:09:00,,0828.9,5.00,0.00,26.9,26.0,00.0,35.9,28.6,06.9,0000.0,0002.38,0000.83,0000.54
2022-03-01 06:10:00,,0828.5,5.00,0.00,26.9,26.0,00.0,35.9,28.6,06.9,0000.0,0002.34,0000.84,0000.54
2022-03-01 06:11:00,,0828.5,5.00,0.00,26.9,26.0,00.0,35.9,28.5,06.9,0000.0,0002.40,0000.86,0000.53
2022-03-01 06:12:00,,0828.5,5.00,0.00,26.9,26.0,00.0,35.9,28.5,07.1,0000.0,0002.47,0000.87,0000.54
2022-03-01 06:13:00,,0828.5,5.01,0.00,26.8,26.0,00.0,35.9,28.5,07.0,0000.0,0002.47,0000.87,0000.53
2022-03-01 06:14:00,,0828.4,4.99,0.00,26.8,26.0,00.0,35.9,28.5,07.0,0000.0,0001.75,0000.87,0000.52
2022-03-01 06:15:00,,0828.4,5.00,0.00,26.8,25.9,00.0,35.9,28.5,07.2,0000.0,0001.58,0000.86,0000.52
2022-03-01 06:16:00,,0828.4,5.00,0.00,26.8,25.9,00.0,35.9,28.4,07.1,0000.0,0001.51,0000.86,0000.53
2022-03-01 06:17:00,,0828.4,5.00,0.00,26.8,25.9,00.0,35.9,28.4,07.0,0000.0,0001.45,0000.84,0000.52
2022-03-01 06:18:00,,0828.4,5.00,0.00,26.8,25.9,00.0,35.9,28.4,07.1,0000.0,0001.48,0000.85,0000.52
2022-03-01 06:19:00,,0828.5,5.00,0.00,26.7,25.9,00.0,35.9,28.4,07.2,0000.0,0001.63,0000.89,0000.52
2022-03-01 06:20:00,,0828.5,5.01,0.00,26.7,25.9,00.0,35.9,28.4,07.2,0000.0,0001.77,0000.93,0000.52
2022-03-01 06:21:00,,0828.5,5.01,0.00,26.7,25.8,00.0,35.8,28.4,07.1,0000.0,0001.84,0000.93,0000.51
2022-03-01 06:22:00,,0828.8,5.01,0.00,26.7,25.8,00.0,35.8,28.4,07.2,0000.0,0001.76,0000.90,0000.51
2022-03-01 06:23:00,,0829.0,5.00,0.00,26.7,25.8,00.0,35.8,28.4,07.2,0000.0,0001.70,0000.90,0000.51
2022-03-01 06:24:00,,0829.1,4.99,0.00,26.7,25.8,00.0,35.8,28.4,07.0,0000.0,0001.74,0000.92,0000.50
2022-03-01 06:25:00,,0829.0,5.00,0.00,26.7,25.8,00.0,35.8,28.4,07.0,0000.0,0001.78,0000.93,0000.51
2022-03-01 06:26:00,,0829.0,4.99,0.00,26.7,25.9,00.0,35.8,28.4,07.0,0000.0,0001.88,0000.95,0000.50
2022-03-01 06:27:00,,0828.9,5.01,0.00,26.7,25.9,00.0,35.8,28.4,07.1,0000.0,0001.90,0000.95,0000.50
2022-03-01 06:28:00,,0829.0,5.00,0.00,26.7,25.9,00.0,35.8,28.4,07.0,0000.0,0002.10,0000.96,0000.50
2022-03-01 06:29:00,,0828.9,5.00,0.00,26.7,25.8,00.0,35.8,28.4,06.9,0000.0,0002.62,0000.96,0000.50
2022-03-01 06:30:00,,0828.4,5.00,0.00,26.7,25.8,00.0,35.8,28.4,06.9,0000.0,0002.52,0000.93,0000.50
2022-03-01 06:31:00,,0828.4,5.00,0.00,26.7,25.8,00.0,35.8,28.4,07.0,0000.0,0002.38,0000.90,0000.50
2022-03-01 06:32:00,,0828.5,4.99,0.00,26.7,25.8,00.0,35.8,28.3,07.1,0000.0,0002.25,0000.87,0000.51
2022-03-01 06:33:00,,0828.4,5.00,0.00,26.7,25.8,00.0,35.8,28.3,06.9,0000.0,0002.33,0000.88,0000.51
2022-03-01 06:34:00,,0828.4,4.99,0.00,26.7,25.8,00.0,35.7,28.3,07.0,0000.0,0002.31,0000.88,0000.51
2022-03-01 06:35:00,,0828.7,5.00,0.00,26.6,25.8,00.0,35.7,28.3,06.8,0000.0,0002.29,0000.87,0000.51
2022-03-01 06:36:00,,0829.1,5.00,0.00,26.6,25.8,00.0,35.7,28.4,07.0,0000.0,0002.26,0000.87,0000.52
2022-03-01 06:37:00,,0829.1,5.00,0.00,26.6,25.8,00.0,35.7,28.4,07.2,0000.0,0002.15,0000.84,0000.52
2022-03-01 06:38:00,,0829.0,4.99,0.00,26.7,25.8,00.0,35.7,28.4,07.1,0000.0,0002.17,0000.85,0000.52
2022-03-01 06:39:00,,0828.9,5.01,0.00,26.7,25.8,00.0,35.7,28.4,07.2,0000.0,0001.96,0000.86,0000.53
2022-03-01 06:40:00,,0829.0,5.01,0.00,26.7,25.7,00.0,35.7,28.3,06.9,0000.0,0001.44,0000.85,0000.53
2022-03-01 06:41:00,,0829.1,5.01,0.00,26.6,25.7,00.0,35.7,28.4,07.1,0000.0,0001.49,0000.86,0000.52
2022-03-01 06:42:00,,0828.9,5.00,0.00,26.6,25.7,00.0,35.7,28.4,07.2,0000.0,0001.54,0000.88,0000.52
2022-03-01 06:43:00,,0828.8,5.00,0.00,26.6,25.7,00.0,35.7,28.4,07.4,0000.0,0001.57,0000.90,0000.52
2022-03-01 06:44:00,,0828.5,4.99,0.00,26.6,25.7,00.0,35.7,28.3,07.4,0000.0,0001.56,0000.91,0000.52
2022-03-01 06:45:00,,0828.4,5.00,0.00,26.6,25.7,00.0,35.7,28.3,07.1,0000.0,0001.52,0000.89,0000.52
2022-03-01 06:46:00,,0828.5,5.01,0.00,26.6,25.7,00.0,35.7,28.3,07.1,0000.0,0001.50,0000.90,0000.53
2022-03-01 06:47:00,,0828.5,5.00,0.00,26.6,25.7,00.0,35.7,28.3,07.2,0000.0,0001.48,0000.90,0000.53
2022-03-01 06:48:00,,0828.4,5.01,0.00,26.6,25.7,00.0,35.7,28.3,07.2,0000.0,0001.47,0000.89,0000.53
2022-03-01 06:49:00,,0828.7,5.00,0.00,26.6,25.7,00.0,35.7,28.3,06.9,0000.0,0001.47,0000.88,0000.53
2022-03-01 06:50:00,,0829.0,5.00,0.00,26.6,25.7,00.0,35.7,28.3,07.1,0000.0,0001.46,0000.87,0000.53
2022-03-01 06:51:00,,0828.6,5.00,0.00,26.6,25.7,00.0,35.7,28.3,07.1,0000.0,0001.41,0000.85,0000.53
2022-03-01 06:52:00,,0828.5,5.00,0.00,26.6,25.7,00.0,35.7,28.3,07.2,0000.0,0001.32,0000.82,0000.53
2022-03-01 06:53:00,,0828.7,4.99,0.00,26.6,25.6,00.0,35.7,28.2,07.4,0000.0,0001.43,0000.84,0000.52
2022-03-01 06:54:00,,0829.0,4.99,0.00,26.5,25.6,00.0,35.6,28.2,07.2,0000.0,0001.56,0000.84,0000.53
2022-03-01 06:55:00,,0829.1,5.00,0.00,26.5,25.6,00.0,35.6,28.2,07.3,0000.0,0001.51,0000.82,0000.53
2022-03-01 06:56:00,,0828.5,5.00,0.00,26.5,25.6,00.0,35.6,28.2,07.1,0000.0,0001.63,0000.87,0000.54
2022-03-01 06:57:00,,0828.4,5.00,0.00,26.5,25.5,00.0,35.6,28.2,07.2,0000.0,0001.67,0000.88,0000.54
2022-03-01 06:58:00,,0828.4,5.00,0.00,26.4,25.5,00.0,35.6,28.1,07.1,0000.0,0001.71,0000.87,0000.54
2022-03-01 06:59:00,,0828.4,5.00,0.00,26.4,25.5,00.0,35.6,28.1,07.2,0000.0,0001.82,0000.89,0000.54
